Total_Precipitation_Accumulation
1.68 1.78 2.75 2.76 2.27 2.00 2.00 1.94 1.92 1.95 1.96 1.93 1.85 1.72 1.64 1.48 1.25 1.10 0.98 0.86 0.82 0.88 0.86 0.79 0.76 0.69 0.58 0.49 0.50 0.61 0.71 0.84 0.92 0.93 1.05 1.12 1.10 1.24 1.40 1.61 1.85 2.08 1.80
1.41 1.71 2.72 2.73 2.25 1.87 1.78 1.74 1.86 1.93 1.91 1.82 1.75 1.73 1.55 1.40 1.23 1.08 0.98 0.87 0.79 0.85 0.90 0.87 0.85 0.74 0.60 0.56 0.61 0.68 0.73 0.81 0.95 1.02 1.25 1.37 1.30 1.33 1.23 1.41 1.69 1.94 1.80
1.42 1.59 2.10 2.45 2.22 1.86 1.74 1.83 1.88 1.84 1.83 1.82 1.74 1.76 1.47 1.32 1.24 1.11 1.03 0.95 0.87 0.80 0.83 0.94 0.94 0.83 0.66 0.65 0.72 0.81 0.90 0.96 1.06 1.16 1.67 2.34 1.75 1.48 1.47 1.56 1.67 1.66 1.69
1.43 1.45 1.71 2.26 2.09 1.84 1.79 1.89 1.94 1.89 1.85 1.89 1.78 1.58 1.32 1.27 1.22 1.20 1.18 1.11 0.98 0.86 0.81 0.86 0.88 0.81 0.75 0.73 0.77 0.84 1.02 1.12 1.21 1.27 1.67 2.24 2.15 1.78 1.59 1.63 1.68 1.55 1.63
1.37 1.44 1.85 2.14 1.99 1.83 1.68 1.74 1.86 1.82 1.79 1.85 1.75 1.47 1.25 1.15 1.15 1.18 1.21 1.16 1.05 1.01 0.89 0.86 0.84 0.78 0.77 0.70 0.76 0.88 1.00 1.11 1.30 1.23 1.51 2.00 2.38 1.91 1.51 1.63 1.77 1.63 1.68
1.25 1.32 1.62 1.95 1.94 1.80 1.62 1.64 1.53 1.43 1.43 1.56 1.54 1.36 1.20 1.20 1.15 1.14 1.10 1.07 1.06 1.04 0.98 0.91 0.85 0.80 0.77 0.72 0.77 0.88 1.01 1.10 1.15 1.28 1.59 2.04 2.28 1.89 1.51 1.58 1.79 1.88 1.86
1.17 1.13 1.35 1.64 1.68 1.67 1.64 1.58 1.51 1.36 1.36 1.37 1.33 1.25 1.15 1.14 1.13 1.10 1.00 0.91 0.91 0.95 0.93 0.88 0.82 0.77 0.69 0.68 0.73 0.80 0.94 0.91 0.96 1.30 1.57 1.93 1.87 1.67 1.44 1.55 1.83 2.01 1.97
1.16 1.06 1.14 1.34 1.36 1.31 1.34 1.55 1.58 1.32 1.34 1.30 1.17 1.13 1.10 1.00 1.00 0.98 0.89 0.87 0.89 0.98 0.98 0.88 0.79 0.72 0.66 0.67 0.75 0.81 0.92 0.76 0.68 0.96 1.26 1.70 1.86 1.73 1.43 1.42 1.65 1.81 1.95
1.27 1.12 1.05 1.02 1.05 1.16 1.32 1.30 1.24 1.26 1.38 1.32 1.12 1.05 1.08 0.93 0.84 0.81 0.83 0.88 0.89 0.97 1.01 0.93 0.80 0.69 0.68 0.73 0.81 0.82 0.86 0.80 0.73 0.89 1.02 1.45 1.77 1.74 1.43 1.34 1.48 1.59 1.82
1.16 1.03 0.91 0.85 0.88 0.96 1.10 1.18 1.14 1.12 1.20 1.19 1.10 1.08 1.09 0.89 0.78 0.78 0.82 0.94 1.00 1.00 1.07 1.01 0.84 0.76 0.75 0.79 0.79 0.74 0.71 0.65 0.70 0.79 1.08 1.25 1.76 1.75 1.41 1.26 1.31 1.38 1.46
1.02 0.93 0.85 0.78 0.80 0.86 0.92 0.96 1.07 1.09 1.10 1.02 0.94 0.97 0.88 0.69 0.68 0.73 0.78 1.05 1.17 1.25 1.25 1.17 1.06 0.94 0.85 0.78 0.77 0.73 0.58 0.56 0.74 0.85 1.09 1.42 1.76 1.70 1.41 1.26 1.30 1.24 1.19
1.00 0.90 0.82 0.82 0.79 0.77 0.77 1.02 1.16 1.03 0.94 0.83 0.85 0.83 0.80 0.79 0.80 0.67 0.77 0.98 1.00 1.09 1.15 1.14 1.13 0.97 0.76 0.61 0.64 0.64 0.51 0.60 0.70 0.78 1.01 1.53 1.75 1.73 1.54 1.34 1.26 1.19 1.12
0.96 0.87 0.77 0.78 0.70 0.64 0.75 0.93 1.10 1.14 1.11 1.07 0.93 0.92 0.87 0.79 0.71 0.61 0.63 0.72 0.77 0.85 0.84 0.93 0.96 0.78 0.63 0.60 0.61 0.54 0.51 0.58 0.68 0.77 1.04 1.61 1.83 1.81 1.68 1.43 1.30 1.22 1.19
0.83 0.86 0.74 0.71 0.61 0.56 0.54 0.64 0.80 0.85 0.85 0.86 0.87 0.81 0.82 0.85 0.80 0.70 0.70 0.77 0.80 0.78 0.87 0.91 0.93 0.80 0.67 0.56 0.54 0.55 0.58 0.61 0.72 0.88 1.10 1.49 1.83 1.90 1.86 1.61 1.50 1.41 1.34
0.77 0.76 0.75 0.70 0.64 0.68 0.65 0.60 0.58 0.63 0.69 0.74 0.81 0.73 0.69 0.73 0.79 0.80 0.76 0.83 0.80 0.81 0.89 0.87 0.74 0.72 0.68 0.58 0.56 0.59 0.68 0.68 0.80 0.87 1.03 1.32 1.75 2.16 2.21 2.01 1.76 1.58 1.58
0.70 0.78 0.77 0.67 0.68 0.67 0.62 0.64 0.65 0.64 0.67 0.70 0.74 0.67 0.61 0.62 0.66 0.78 0.78 0.85 0.77 0.83 0.95 0.85 0.75 0.76 0.76 0.66 0.59 0.64 0.68 0.71 0.78 0.92 1.04 1.22 1.44 1.87 2.26 2.33 2.16 1.95 1.80
0.57 0.69 0.77 0.73 0.74 0.70 0.66 0.69 0.72 0.71 0.65 0.67 0.70 0.63 0.58 0.63 0.64 0.76 0.82 0.82 0.80 0.85 0.89 0.92 0.91 0.85 0.76 0.69 0.67 0.66 0.67 0.71 0.88 1.00 1.04 1.17 1.18 1.24 1.71 2.28 2.51 2.42 2.21
0.54 0.60 0.70 0.71 0.76 0.77 0.76 0.78 0.78 0.73 0.72 0.75 0.76 0.71 0.66 0.66 0.69 0.88 0.93 0.83 0.89 1.00 1.06 1.11 1.07 0.98 0.88 0.85 0.87 0.84 0.77 0.82 1.02 1.11 1.05 1.00 1.03 0.96 1.08 1.42 1.78 2.06 2.32
0.57 0.56 0.59 0.65 0.84 0.85 0.81 0.87 0.89 0.87 0.93 0.95 0.94 0.90 0.85 0.82 0.89 1.06 1.13 1.05 1.03 1.19 1.19 1.08 1.13 1.17 1.08 1.10 1.07 1.07 0.98 0.98 1.04 1.00 1.00 1.07 1.11 1.09 1.09 0.96 1.10 1.35 1.86
0.55 0.51 0.54 0.62 0.76 0.85 0.98 1.06 1.14 1.15 1.16 1.28 1.35 1.31 1.13 1.08 1.13 1.29 1.39 1.35 1.31 1.45 1.46 1.35 1.46 1.47 1.39 1.45 1.32 1.22 1.16 1.14 1.12 1.09 1.09 1.17 1.27 1.18 1.20 1.08 1.01 0.87 1.10
0.44 0.43 0.47 0.63 0.80 0.94 1.03 1.17 1.41 1.57 1.67 1.67 1.68 1.73 1.64 1.44 1.53 1.64 1.62 1.84 1.92 1.91 1.91 1.86 1.99 2.03 1.78 1.62 1.94 1.91 1.53 1.24 1.12 1.20 1.28 1.32 1.41 1.43 1.37 1.30 1.22 1.04 0.95
0.35 0.36 0.41 0.56 0.80 1.02 1.21 1.38 1.56 1.88 2.04 2.05 2.12 2.04 1.98 1.86 1.88 1.80 1.88 2.10 2.16 2.28 2.37 2.22 2.36 2.46 2.14 1.85 2.28 2.74 2.32 1.89 1.30 1.08 1.20 1.33 1.47 1.53 1.45 1.34 1.33 1.28 1.18
0.28 0.30 0.33 0.46 0.69 0.98 1.27 1.52 1.71 1.94 2.19 2.29 2.19 2.16 2.18 2.24 2.27 2.16 2.11 2.24 2.27 2.35 2.56 2.61 2.56 2.68 2.61 2.27 2.24 2.71 2.67 2.34 1.94 1.41 1.24 1.30 1.44 1.55 1.62 1.63 1.47 1.44 1.34
0.29 0.30 0.34 0.46 0.62 0.82 1.07 1.39 1.64 1.89 2.20 2.28 2.25 2.24 2.28 2.37 2.44 2.38 2.33 2.40 2.41 2.38 2.51 2.60 2.57 2.80 3.01 2.75 2.47 2.24 2.19 2.24 2.30 1.92 1.50 1.36 1.47 1.54 1.67 1.65 1.68 1.73 1.67
0.34 0.36 0.44 0.56 0.68 0.85 1.07 1.38 1.70 1.87 2.03 2.23 2.26 2.17 2.11 2.18 2.18 2.14 2.25 2.41 2.42 2.41 2.43 2.60 2.71 2.91 2.93 2.86 2.73 2.58 2.42 2.25 1.93 2.01 1.92 1.66 1.61 1.51 1.61 1.80 1.88 1.93 1.85
0.46 0.52 0.60 0.71 0.88 1.01 1.07 1.19 1.35 1.56 1.83 1.96 2.07 2.11 2.13 2.14 2.01 1.91 2.01 2.11 2.20 2.26 2.26 2.31 2.45 2.61 2.81 2.95 2.89 2.70 2.63 2.57 2.39 2.24 1.94 1.79 1.85 1.68 1.57 1.61 1.73 1.82 1.97